User: anonymous   Login
Location: Nickerson Gardens
(33.9320°N, 118.2484°W)
Time: 03:57:17
(UTC+00:00)
Language:

PCSat - Orbit

View from above orbital plane
View from above orbital plane
View from above satellite
View from above satellite

Ground track
Ground track

The orbit data is extracted from the following two-line orbital elements,

1 26931U 01043C   21107.35550112 -.00000023  00000-0  23099-4 0  9995
2 26931  67.0508  78.1162 0007236 264.6444  95.3832 14.30614005 20491
Epoch (UTC): 17 April 2021 08:31:55
Eccentricity: 0.0007236
inclination: 67.0508°
perigee height: 784 km
apogee height: 795 km
right ascension of ascending node: 78.1162°
argument of perigee: 264.6444°
revolutions per day: 14.30614005
mean anomaly at epoch: 95.3832°
orbit number at epoch: 2049

The dashed part of the orbit path shows where the satellite is in the earth's shadow,  

DLR